sat.trackr.live / text

‹ back to catalog

STARLINK-30503

NORAD 57975 · 2023-151M

PAYLOAD ACTIVE UNKNOWN

§ Identity

Operator
Country
US
Launch date
2023-09-30
Launch site
AFETR
Launch vehicle
Mass (kg)
RCS (m²)

Purposes: comms

External: N2YO · Heavens-Above · Gunter

§ Orbital elements

Epoch: 2026-09-20T05:21:20.109024Z

Period
94.27 min
Inclination
43.0010°
Eccentricity
0.0001217
Mean motion
15.27576839 rev/d
Perigee alt
482.2 km
Apogee alt
483.9 km
Semi-major
6,861.2 km
B*
1.3261e-4
RAAN
317.7023°
Arg perigee
232.0347°
Mean anomaly
128.0394°
Rev number
16,551

§ Raw data

STARLINK-305031 57975U 23151M   26263.22314941  .00003389  00000+0  13261-3 0  99982 57975  43.0010 317.7023 0001217 232.0347 128.0394 15.27576839165516

JSON: /api/v1/satellites/57975 · /tle

For live sub-satellite position, see the globe view (requires WebGL).

§ Visibility from observer

Set your observer location to see the next 7 days of passes ≥ 10°. The values pass through the URL so the page stays shareable.

No JS? Fill the form by hand. The geolocation button needs JavaScript.